Torna al catalogo

STARLINK-36175

AttivoComunicazioniVLEO
NORAD 67012·PAYLOAD·🇺🇸 United States

Lanciato Dec 10, 2025 da Vandenberg Space Force Base

Loading…

Prossimi Passaggi (prossime 24 ore)

TLE

AggiornatoSource: CelesTrak SupGP

Epoca: Sep 15, 2026, 03:17 UTC

1 67012C 25293K   26258.13729167  .00056356  00000+0  47228-2 0  2583
2 67012  70.0019 336.9667 0003673 266.1954 355.2446 14.98300976    14

Traccia STARLINK-36175 in tempo reale con AllMySat

Download on the App Store